GFSFLT2_sfc_30mbdewp_081.txt.gz
Dewpoint
67 66 65 64 62 62 64 62 61 65 64 65 65 65 65 64 64 64 64 63 63 62 62 61 60 59 56 54 54 53 48 49
66 65 65 64 63 63 63 65 65 64 64 65 65 65 64 63 63 64 64 63 62 62 61 61 60 58 55 54 53 51 47 48
64 64 65 63 63 62 61 62 64 65 63 64 64 65 62 62 61 64 63 63 62 61 61 60 58 57 55 53 51 46 47 47
62 63 63 63 62 61 61 60 62 63 63 63 63 63 62 61 63 64 63 62 61 61 60 58 53 50 51 53 49 47 45 48
61 61 62 62 61 61 61 62 63 64 63 63 63 63 63 59 63 63 62 59 55 55 55 48 46 45 48 49 48 47 47 49
60 61 61 61 61 60 60 61 62 62 63 63 63 62 61 61 61 60 58 52 50 50 48 48 47 45 47 48 48 46 47 50
60 60 60 60 60 59 59 61 61 62 63 63 62 60 60 59 57 58 53 51 51 48 48 47 47 47 47 48 47 47 47 49
60 60 60 59 59 60 61 61 62 63 61 62 61 60 59 58 58 55 53 52 50 48 49 48 47 47 47 47 47 48 48 49
56 59 59 58 58 60 60 60 59 58 58 59 58 58 59 58 57 55 56 54 53 53 49 46 44 45 46 47 48 49 48 49
56 59 58 58 57 60 59 58 57 57 57 56 55 54 54 54 56 56 56 55 53 51 48 45 43 43 45 46 47 48 49 49
55 58 57 58 58 60 59 57 56 56 55 54 55 54 53 53 52 53 54 52 53 52 49 47 44 43 44 44 45 46 48 48
54 57 58 58 58 59 58 57 56 55 53 53 54 54 53 51 50 51 50 50 49 49 47 46 45 42 40 42 44 45 46 46
54 57 58 57 57 57 56 55 54 53 51 51 51 50 49 48 48 47 46 45 46 48 47 45 43 42 37 40 42 43 44 45
53 56 57 57 57 57 56 55 54 52 50 47 48 48 45 46 47 50 46 46 47 47 47 47 44 45 41 42 42 42 43 44
53 56 56 56 56 57 56 54 55 52 51 46 47 50 49 49 52 51 50 51 51 52 51 49 48 48 49 49 48 47 47 45
53 55 56 56 56 57 55 52 51 51 51 50 48 50 52 53 53 54 54 54 53 53 52 51 51 51 49 50 51 52 49 48
53 55 54 55 56 56 55 53 52 53 51 49 48 49 50 51 53 54 54 54 54 54 52 53 53 52 52 51 51 52 53 49
53 54 55 55 55 56 55 54 55 54 52 50 50 49 51 52 52 54 54 53 55 55 55 55 55 54 54 53 52 50 50 49
52 53 53 55 55 54 55 55 54 54 52 51 50 50 51 52 52 53 53 54 54 56 55 55 56 56 53 53 52 52 50 51
51 52 53 54 55 54 54 55 55 54 53 51 51 50 49 50 51 50 52 53 53 55 55 54 57 56 56 54 52 53 53 53

GFSFLT2_sfc_30mbdewp_084.txt.gz
Dewpoint
66 67 66 63 62 62 63 62 59 61 60 61 66 67 66 65 65 65 65 64 64 62 62 60 59 57 55 53 53 53 51 53
66 66 66 65 63 62 63 63 62 60 61 64 64 65 64 63 64 65 64 64 63 62 61 60 58 56 54 51 51 52 50 52
64 65 65 64 64 63 63 64 63 64 62 63 63 64 65 62 64 64 63 63 63 62 61 59 56 54 52 51 54 50 50 53
63 64 64 64 64 62 62 63 64 64 62 65 64 64 63 62 63 63 63 62 62 61 59 57 54 52 53 53 51 50 51 53
61 62 63 62 62 63 62 62 65 65 64 64 63 63 64 63 62 62 62 61 60 59 57 53 50 50 51 51 52 50 52 53
61 61 62 63 63 62 62 62 63 63 63 63 62 62 62 61 61 62 59 58 56 55 52 50 49 48 51 53 49 51 52 54
60 61 61 61 61 61 61 62 62 62 63 62 62 62 61 62 62 61 57 53 52 51 50 49 49 47 51 50 50 51 52 53
61 60 61 60 61 60 60 60 62 62 63 63 63 62 60 61 61 60 53 51 50 49 51 50 49 49 50 50 50 51 52 53
61 61 61 60 60 60 61 61 61 62 63 63 62 62 60 60 59 57 53 52 50 52 51 50 50 49 50 50 50 51 52 52
60 60 59 59 60 60 59 58 58 59 60 62 60 60 59 58 57 57 57 56 53 52 50 49 49 49 49 49 50 51 52 52
58 59 58 58 60 59 57 57 57 57 57 57 59 58 57 56 57 58 58 56 54 51 49 48 46 48 48 49 50 51 51 51
58 58 58 58 59 58 57 56 56 55 55 55 55 56 57 56 56 56 55 54 53 51 48 49 47 46 44 46 49 51 50 50
57 57 57 58 58 56 55 54 54 54 54 54 54 53 54 55 55 55 54 52 51 49 47 46 44 45 45 46 46 48 49 50
57 56 57 57 57 57 55 54 54 53 53 53 53 52 53 53 53 53 52 51 50 50 47 47 46 47 44 44 42 43 45 48
56 56 57 57 57 57 55 54 53 50 50 51 52 52 51 49 50 48 49 48 48 50 49 46 46 47 47 47 45 43 44 46
53 55 56 57 57 56 54 52 50 49 48 49 50 51 50 47 48 48 51 50 51 49 51 50 51 47 50 52 52 52 48 47
54 55 56 56 57 55 54 52 49 49 47 46 48 50 51 51 50 52 51 54 54 53 53 52 53 53 49 49 50 53 53 50
53 54 55 56 57 55 54 52 50 50 48 45 46 50 51 51 54 55 55 55 54 54 54 54 53 53 54 53 51 51 52 51
54 54 54 55 56 56 54 52 51 50 49 47 47 48 49 51 53 54 54 54 55 55 55 54 55 52 53 52 53 53 52 52
53 53 54 55 56 56 56 54 52 51 51 49 48 48 48 50 52 53 53 54 54 55 54 53 52 54 54 53 52 53 53 52

GFSFLT2_sfc_30mbdewp_087.txt.gz
Dewpoint
67 67 66 66 65 64 64 64 62 62 61 59 61 62 65 66 66 66 66 65 64 64 62 62 59 57 54 54 56 56 54 54
66 66 64 62 63 63 63 63 62 61 61 62 61 61 64 64 65 65 65 64 63 63 62 60 57 54 52 56 56 55 54 54
64 66 64 63 62 63 63 63 62 62 62 62 61 64 65 63 65 65 64 63 63 62 61 58 55 52 53 54 52 53 54 54
63 65 64 64 64 63 62 63 63 63 61 63 62 64 64 64 63 64 64 63 62 61 59 57 52 51 52 52 52 53 54 54
62 63 64 64 63 62 62 62 63 63 62 63 64 64 63 63 63 63 63 62 60 59 57 54 51 51 51 51 52 53 54 54
60 62 62 62 62 62 62 62 64 64 61 64 63 63 62 63 62 62 61 60 58 56 54 51 50 51 51 52 52 53 54 55
60 61 61 62 62 61 61 61 62 64 63 63 63 62 61 61 62 61 59 58 56 54 51 49 49 50 50 52 53 53 54 55
60 60 61 60 61 61 60 61 62 63 63 63 62 62 61 60 61 60 56 55 53 51 51 48 47 48 50 52 53 53 54 55
60 60 60 60 60 60 60 61 62 62 63 62 62 61 61 60 61 58 54 52 50 50 50 49 48 48 50 51 52 53 53 54
60 61 60 60 60 59 59 59 59 61 62 63 62 61 60 61 60 58 53 52 47 51 51 49 49 49 49 51 52 52 53 53
60 59 59 59 60 58 58 58 58 59 60 62 62 61 60 60 59 57 54 53 50 52 50 50 49 49 49 50 52 52 52 52
59 58 58 59 58 57 57 56 56 56 56 60 61 61 60 59 58 58 57 55 53 50 49 49 49 48 47 49 50 52 52 52
58 58 58 58 57 55 54 54 54 54 55 56 59 58 58 57 57 56 55 53 51 49 48 47 48 47 47 48 49 50 50 51
57 57 57 57 57 56 55 54 54 54 54 55 57 57 57 56 56 56 55 52 50 48 46 46 46 47 46 45 44 46 48 50
56 56 57 57 57 56 55 54 53 52 52 53 55 56 57 56 56 56 55 52 49 47 46 45 44 47 47 45 43 42 44 46
56 56 56 56 57 55 53 52 51 51 51 52 52 54 54 54 53 53 52 52 49 49 48 47 46 44 50 52 51 49 43 44
56 56 56 56 57 55 53 52 51 50 50 50 51 51 50 51 51 50 50 51 50 49 50 49 49 47 46 49 50 52 52 49
55 55 56 57 56 55 53 52 50 49 48 49 50 50 50 49 49 48 51 51 52 50 51 50 52 51 50 50 49 49 51 51
54 54 55 56 56 55 53 52 50 49 47 48 48 49 49 50 51 49 51 53 54 53 53 53 53 54 53 52 52 51 52 51
53 54 53 56 56 55 54 52 50 49 47 46 47 48 48 51 53 54 53 54 55 55 54 54 55 54 54 54 53 52 54 53

GFSFLT2_sfc_30mbdewp_093.txt.gz
Dewpoint
66 67 68 69 70 70 69 67 66 65 64 65 65 63 63 63 64 64 64 65 65 65 64 64 63 62 61 60 59 59 59 59
66 66 66 66 67 69 68 65 64 64 64 64 65 64 65 64 63 64 64 64 65 64 64 62 60 61 60 59 58 58 58 58
64 64 64 64 65 67 66 65 64 64 64 63 63 62 62 63 63 63 64 63 64 64 63 59 59 61 59 58 56 55 56 56
64 63 63 63 64 64 63 64 63 63 62 62 62 62 60 61 61 63 64 64 62 63 60 59 60 58 58 56 54 54 55 55
63 63 62 61 61 62 62 62 61 61 62 62 61 61 61 61 62 62 64 64 62 61 57 57 57 56 54 54 54 54 54 54
62 63 63 62 62 61 61 61 61 60 61 62 62 60 60 62 62 63 62 62 60 59 54 54 53 53 53 54 53 53 53 54
60 62 63 63 62 61 60 61 61 61 62 62 62 62 60 62 62 62 61 59 58 56 52 52 52 53 53 53 53 53 53 54
59 61 62 62 62 62 61 61 62 62 61 62 62 62 61 61 62 61 60 58 57 55 51 50 52 52 53 53 53 54 54 55
59 60 61 61 61 60 61 61 62 62 61 62 63 62 61 61 61 61 60 57 55 54 51 50 51 52 52 53 53 54 54 54
59 60 60 60 60 59 59 60 62 62 61 62 62 62 61 61 61 59 58 56 54 52 50 49 50 52 52 53 53 54 54 54
59 59 59 59 59 59 59 59 60 61 62 62 62 62 62 61 60 59 56 55 53 51 49 48 50 52 52 52 53 53 54 54
59 59 59 59 58 57 57 57 58 57 59 61 62 61 61 61 60 57 55 53 51 51 48 49 50 52 52 52 52 53 53 53
59 58 58 58 57 55 55 55 56 56 56 57 60 61 61 61 60 57 55 50 50 51 48 48 50 52 51 51 52 52 52 53
58 58 58 56 56 55 54 54 55 55 55 56 57 60 61 60 60 57 54 48 49 51 47 48 49 52 50 50 49 50 51 52
58 57 57 56 55 55 54 54 54 53 54 55 56 59 60 60 59 57 56 49 51 51 47 47 48 49 51 49 48 47 49 50
57 57 56 55 55 54 53 53 51 52 53 54 56 58 60 60 59 57 56 51 51 51 50 47 48 48 49 49 48 48 47 45
57 56 56 55 55 54 53 53 52 52 52 53 55 57 58 59 58 58 56 51 53 52 50 49 49 49 48 49 50 49 48 45
56 55 55 54 55 54 53 52 52 52 52 52 53 55 55 57 57 56 55 53 54 53 51 51 51 49 49 49 49 47 47 46
55 54 54 55 54 54 53 52 51 51 52 52 52 52 53 55 56 55 53 52 54 54 52 51 51 50 49 49 50 49 50 48
55 54 54 54 54 54 53 52 51 51 51 52 52 52 53 53 54 54 54 54 54 53 53 51 51 50 49 50 49 51 51 49

GFSFLT2_sfc_30mbdewp_096.txt.gz
Dewpoint
66 67 69 70 69 69 69 68 68 68 67 67 66 65 65 64 64 63 63 64 66 66 66 65 64 63 62 62 61 60 59 59
65 66 67 68 69 69 69 67 66 66 66 66 63 63 62 61 60 62 63 64 65 66 65 64 63 62 61 60 60 60 59 59
65 65 65 65 66 67 67 66 65 65 65 65 63 63 63 62 62 62 64 63 63 65 64 63 62 61 60 60 58 58 58 58
64 64 63 64 65 66 65 65 64 64 64 64 63 63 62 63 62 64 62 63 64 64 62 62 61 60 59 57 56 56 56 58
63 63 62 63 63 64 64 64 64 63 63 63 62 62 61 61 62 63 64 62 63 63 60 60 59 58 56 54 54 55 55 57
62 62 61 61 61 62 63 62 62 61 61 61 61 61 61 60 61 62 62 62 63 59 58 58 57 55 54 54 54 54 54 56
61 62 62 61 61 60 61 61 61 60 60 61 61 60 60 60 60 62 62 62 62 57 55 55 55 54 54 54 53 53 54 55
59 61 62 62 61 60 60 60 61 61 61 61 62 62 61 61 61 61 60 61 60 55 54 54 53 53 53 53 53 53 54 55
58 60 61 61 61 61 61 61 61 61 61 61 62 62 61 61 61 60 60 60 59 54 52 53 53 53 53 53 53 54 54 54
58 60 60 60 60 60 60 61 62 62 61 61 62 61 61 61 61 60 60 58 56 52 51 52 52 52 52 53 53 54 54 54
58 60 60 60 59 59 59 60 62 62 61 61 62 62 61 61 61 60 58 57 55 52 50 51 52 52 52 53 54 54 54 54
58 59 59 59 58 58 58 58 59 60 62 62 61 62 61 61 61 59 58 55 53 52 49 51 52 52 52 52 53 53 54 54
58 58 58 58 58 57 56 56 57 57 58 60 61 62 61 61 60 57 57 55 53 51 49 50 52 52 51 51 52 52 53 53
58 58 58 58 58 57 55 56 55 55 55 56 57 59 61 61 59 57 56 54 52 50 49 50 51 52 50 50 49 50 51 52
58 57 58 58 57 55 54 54 54 53 54 54 55 57 59 61 59 57 56 54 52 50 49 49 50 52 51 50 48 47 49 51
58 57 57 57 56 54 53 53 51 52 53 54 55 56 58 60 59 57 57 55 54 52 49 48 50 50 51 50 50 50 48 46
57 57 57 56 55 54 53 52 52 52 53 53 55 56 57 60 59 58 56 53 53 52 49 48 50 51 50 49 49 49 48 47
57 56 56 55 55 54 53 52 52 51 52 52 54 56 57 59 59 58 57 54 53 53 51 48 51 50 51 50 49 48 47 45
56 55 55 55 54 54 53 52 52 51 52 52 53 53 54 56 58 57 56 54 54 53 52 52 52 51 51 50 50 47 48 47
55 54 55 54 54 53 53 52 51 51 52 53 53 54 54 56 56 55 55 54 54 54 52 52 53 52 51 48 49 50 50 49

GFSFLT2_sfc_30mbdewp_102.txt.gz
Dewpoint
68 68 69 69 68 69 69 69 69 69 69 67 65 67 66 65 65 65 63 64 63 66 66 66 66 65 64 62 61 59 56 56
67 67 68 68 68 68 68 68 68 68 67 67 66 66 66 66 66 65 65 64 63 64 66 65 65 64 63 62 60 59 57 56
67 66 67 67 67 68 68 68 68 67 67 66 65 64 64 64 62 65 65 64 64 64 64 62 64 63 62 61 60 57 57 55
65 66 65 67 66 68 68 68 68 67 65 64 63 62 62 60 61 65 64 64 63 61 60 63 63 62 61 61 58 58 56 56
64 65 66 65 64 67 68 68 68 67 67 65 65 64 63 61 61 62 61 63 63 60 62 63 62 62 61 60 58 58 54 55
65 65 65 66 63 66 66 66 67 66 66 66 66 65 65 64 63 61 62 61 62 62 63 62 62 61 60 59 57 54 54 56
65 65 64 64 64 63 65 65 65 65 65 65 65 64 63 62 62 62 61 64 63 63 63 62 62 61 59 58 56 54 53 54
63 64 64 63 62 62 61 63 64 64 64 64 64 64 63 63 62 62 63 63 63 63 62 62 61 60 58 56 55 55 54 53
61 63 64 63 62 62 61 59 63 64 64 64 64 63 63 62 62 62 62 63 61 61 61 61 60 59 56 56 55 55 53 51
59 62 62 63 62 62 60 59 62 62 63 63 63 63 62 61 61 61 61 62 61 59 59 59 60 58 56 55 54 53 52 51
57 61 62 63 63 62 61 62 62 62 62 62 62 61 61 61 61 61 62 59 60 59 58 58 58 56 55 54 53 52 52 52
56 59 61 62 62 62 60 62 61 61 62 62 62 61 61 61 61 60 59 57 57 58 57 57 58 56 54 53 53 51 52 52
55 57 60 61 62 61 60 60 60 61 62 61 61 62 61 61 61 59 58 56 56 56 56 56 56 56 54 53 53 53 52 53
54 56 59 61 60 59 59 60 60 60 60 61 61 62 62 61 60 60 58 57 56 56 56 55 55 56 53 51 51 52 53 53
52 54 57 59 58 58 58 59 59 59 59 59 61 61 62 61 60 59 59 57 56 56 56 56 54 55 55 51 50 49 51 52
50 53 56 59 59 58 57 56 56 56 57 57 59 60 61 61 61 60 58 57 56 56 56 56 54 52 54 52 50 49 48 49
50 53 55 58 59 58 57 55 55 55 56 57 57 57 59 60 60 60 59 58 57 56 56 56 55 53 52 52 52 52 49 46
52 53 55 57 59 58 57 56 55 54 55 54 55 55 55 56 58 59 59 58 57 56 54 55 54 54 54 53 52 52 50 48
53 54 55 58 58 57 57 57 56 55 54 53 53 53 54 55 57 59 58 58 57 56 55 55 55 54 54 53 53 51 51 51
54 54 54 57 57 57 57 56 56 54 54 52 53 53 54 55 56 58 58 58 57 56 55 55 55 54 55 54 52 52 52 51

GFSFLT2_sfc_30mbdewp_105.txt.gz
Dewpoint
68 68 68 69 69 68 68 69 69 69 69 69 67 67 66 66 66 64 64 65 65 65 65 67 67 66 65 64 63 61 60 59
67 67 67 67 67 68 68 68 69 69 68 68 67 66 65 66 65 64 64 62 65 64 65 66 66 65 63 62 60 60 57 57
66 66 66 66 67 67 67 68 68 68 68 67 66 65 65 65 63 63 64 64 65 64 64 64 64 64 63 61 60 56 57 58
63 64 64 65 66 67 67 66 66 66 64 65 66 63 64 63 63 64 64 65 64 63 61 63 63 64 63 62 59 59 58 58
61 63 63 65 65 66 65 66 67 66 66 64 64 63 64 63 63 62 62 64 62 60 61 62 62 62 62 60 59 59 58 57
59 61 63 64 61 65 66 65 66 65 66 66 65 65 64 64 62 62 62 62 61 62 62 62 62 62 62 60 59 58 58 58
59 61 63 63 63 62 62 63 65 66 65 65 65 64 64 64 63 62 60 62 62 63 63 62 61 61 62 60 59 57 58 58
58 62 63 63 63 62 62 63 63 65 65 64 65 64 64 63 63 62 62 63 64 63 63 61 61 61 61 60 58 53 56 57
58 63 63 63 62 62 62 60 61 64 65 64 64 64 63 63 63 62 62 63 63 63 63 62 62 63 61 59 55 51 53 56
54 61 63 63 61 61 61 58 59 63 63 64 64 64 63 63 62 62 62 63 63 63 62 60 61 61 59 57 53 52 50 54
50 59 63 63 62 61 61 59 59 58 61 62 63 63 63 62 62 62 62 61 62 61 61 60 60 60 60 55 54 52 50 47
47 57 62 63 62 61 60 59 62 60 60 60 61 62 63 61 61 61 61 61 61 60 59 60 59 59 59 54 53 52 49 50
48 54 61 62 62 60 59 60 61 61 62 61 61 60 61 61 61 61 60 59 58 59 58 58 59 59 57 54 53 53 53 53
48 52 58 61 62 59 57 61 60 60 61 60 60 58 60 60 61 60 58 57 57 57 57 57 57 59 55 53 52 53 53 53
42 50 54 60 60 59 59 60 59 59 60 60 60 60 61 61 61 60 58 57 56 56 57 57 56 57 55 52 50 50 51 53
39 47 51 56 59 58 58 57 57 58 59 59 59 60 60 61 61 60 59 57 57 57 57 57 56 55 55 56 52 53 49 49
41 43 49 54 59 58 58 57 57 57 57 58 58 59 59 61 61 60 59 58 57 57 57 58 57 55 54 55 54 52 51 47
39 44 47 52 58 58 58 57 56 55 55 56 57 58 58 58 61 60 59 59 58 58 58 58 57 56 55 54 52 51 51 49
39 45 47 51 57 58 58 57 56 55 55 54 54 56 56 57 59 60 60 59 58 57 57 57 57 55 54 53 53 53 52 51
37 41 48 50 56 57 58 57 57 56 55 53 52 54 55 55 57 59 59 59 58 57 57 57 57 57 56 56 55 54 54 52

GFSFLT2_sfc_30mbdewp_108.txt.gz
Dewpoint
69 68 68 68 68 68 70 70 69 68 68 69 69 69 68 68 67 67 67 66 66 67 68 67 67 66 66 65 64 64 62 64
69 68 68 68 68 68 68 69 69 69 69 69 68 68 67 67 66 66 65 65 65 65 66 67 66 65 65 64 63 63 61 63
69 68 68 68 68 68 68 68 68 68 68 68 68 67 67 66 65 64 64 63 65 66 66 65 63 63 63 63 62 61 60 59
67 67 67 68 66 68 67 68 67 68 68 68 68 67 67 65 64 64 64 63 64 65 65 64 63 64 64 63 62 61 60 59
64 66 67 67 65 68 67 67 67 67 66 67 67 66 66 65 65 64 64 64 65 64 63 63 62 62 63 62 62 61 60 60
62 65 67 66 65 67 66 66 67 67 67 66 66 65 64 65 64 64 63 63 63 62 62 63 62 61 60 61 61 59 59 59
60 63 65 67 66 65 66 66 66 66 66 67 66 66 65 65 64 64 63 64 63 62 62 62 61 61 61 61 60 60 59 59
60 61 65 66 65 66 65 66 65 65 65 65 66 66 65 64 64 63 63 64 64 64 63 62 61 61 60 61 61 60 59 59
61 61 66 65 65 65 64 64 64 64 64 63 66 66 65 64 64 63 63 64 64 63 63 62 61 61 60 60 61 59 59 58
61 62 64 65 65 65 63 64 64 63 64 65 63 64 65 64 63 63 63 63 63 63 62 62 61 61 60 60 61 59 57 57
62 64 64 65 65 64 64 63 63 64 64 63 64 64 64 64 63 63 63 63 63 63 62 61 60 60 60 60 61 57 57 56
60 64 64 65 65 64 63 63 61 61 62 63 63 63 64 64 63 62 62 62 62 62 60 61 60 59 60 60 60 55 53 55
53 63 64 64 64 63 62 61 61 61 61 61 62 62 63 63 63 61 62 62 61 60 60 59 59 60 59 58 57 56 53 55
46 61 64 64 63 62 62 62 62 62 62 61 62 62 62 63 62 61 60 59 59 59 59 58 58 60 57 55 52 52 53 52
41 50 63 63 63 62 61 62 61 60 61 61 61 61 60 62 62 60 59 58 57 58 58 58 56 58 57 54 51 49 51 53
41 46 56 62 62 61 59 60 59 59 60 59 60 61 60 62 61 60 58 58 57 57 58 57 57 56 57 56 54 52 50 50
45 43 50 58 62 60 59 60 60 59 59 59 59 61 61 61 61 60 58 57 57 57 57 57 57 56 55 55 54 53 52 50
40 45 47 53 61 61 59 60 59 58 59 59 59 58 60 61 61 60 59 57 57 57 57 57 57 57 57 56 54 51 50 49
42 41 44 50 59 61 60 60 59 58 58 58 58 58 58 59 60 60 60 58 58 58 58 58 57 57 56 56 55 53 52 52
53 40 40 48 56 60 60 61 59 58 58 58 57 57 58 59 61 60 60 59 58 58 58 58 58 57 56 55 55 54 54 53

GFSFLT2_sfc_30mbdewp_111.txt.gz
Dewpoint
68 68 68 69 69 70 71 71 70 68 68 69 70 69 68 68 69 68 67 67 67 68 68 67 67 67 66 65 65 64 62 65
67 68 68 67 68 69 69 70 69 67 67 68 69 69 68 67 67 68 67 66 67 67 67 67 66 66 65 64 64 63 62 63
68 68 68 67 67 67 68 69 69 68 68 69 68 68 68 67 66 66 66 66 66 66 66 66 65 64 63 63 62 62 62 64
68 67 67 67 67 67 67 68 68 68 68 68 68 67 67 66 65 65 65 64 65 66 65 64 63 62 62 63 62 61 61 63
68 68 68 67 67 67 67 67 67 67 68 67 67 67 66 65 64 64 64 62 65 65 65 63 62 62 62 62 61 62 61 62
67 67 67 67 66 67 67 67 66 66 66 67 67 66 66 65 64 63 63 64 64 64 63 62 61 62 62 61 60 62 62 62
66 67 67 66 65 67 67 66 67 67 66 66 66 65 64 64 64 64 63 64 63 62 62 61 60 60 60 60 60 60 61 61
64 65 66 66 65 67 66 66 67 67 66 66 65 65 64 64 64 64 63 64 63 62 62 61 60 60 59 60 61 61 61 61
62 64 66 65 65 66 65 65 65 65 65 66 66 66 65 64 63 63 63 63 63 62 62 61 60 60 60 60 60 60 61 60
61 63 65 66 64 65 65 64 64 64 63 64 64 66 64 64 63 63 63 63 63 62 62 61 60 60 60 60 60 61 62 60
60 63 64 65 64 65 64 64 63 63 64 64 63 65 65 63 63 63 63 62 62 62 61 61 59 60 60 60 60 61 61 59
60 62 65 64 65 64 63 64 64 63 63 63 62 63 64 64 63 63 62 62 62 62 61 61 60 60 60 59 59 61 61 58
61 62 64 64 64 63 63 62 63 63 63 63 62 63 64 63 63 62 62 62 62 62 61 60 60 60 59 59 59 59 59 58
61 63 64 64 64 63 63 62 61 61 62 63 63 62 63 63 62 62 62 61 61 61 60 59 59 60 57 57 53 54 57 57
59 63 64 64 63 63 62 62 61 60 60 61 61 62 62 63 62 61 60 60 59 60 59 57 56 59 59 54 51 50 53 54
51 64 64 64 63 62 61 61 60 60 60 60 60 61 62 62 61 60 59 58 57 58 59 58 57 57 57 57 55 52 49 50
53 50 64 63 63 62 61 60 61 60 60 60 60 60 60 62 60 59 58 57 57 56 57 58 58 57 56 55 54 53 53 50
50 53 52 63 62 61 60 60 60 59 59 59 59 60 60 61 60 59 58 57 57 56 57 58 57 57 56 55 53 52 52 51
47 50 51 53 61 60 60 59 60 59 58 59 59 59 60 60 60 59 58 57 57 56 56 57 57 57 56 55 54 54 54 51
44 46 49 51 60 60 59 59 60 59 58 59 59 58 58 60 60 59 58 57 57 57 57 57 57 57 56 56 55 55 55 53

GFSFLT2_sfc_30mbdewp_114.txt.gz
Dewpoint
67 68 69 70 70 70 70 70 70 70 70 71 70 69 69 69 69 68 68 68 68 68 68 67 67 67 66 65 64 63 64 65
67 67 68 69 70 70 70 70 69 68 70 70 70 69 68 68 68 68 67 67 68 68 67 67 67 66 65 64 64 62 62 64
66 67 67 67 68 69 70 70 68 67 67 67 69 68 68 68 68 68 67 66 67 67 67 66 66 66 64 64 64 62 63 64
66 66 66 66 67 68 68 69 68 67 67 68 68 68 67 67 67 67 67 66 66 66 66 66 65 64 63 63 62 61 62 63
66 66 66 66 66 66 67 67 67 67 67 67 67 67 67 66 65 65 65 65 66 66 65 64 62 61 61 61 61 61 62 63
66 66 66 66 66 65 66 66 66 66 67 67 67 66 66 65 64 64 63 63 65 64 63 62 61 61 61 61 61 61 61 63
67 67 66 67 67 66 65 65 65 65 66 66 66 66 65 65 64 63 63 63 63 63 62 62 61 60 61 61 60 61 61 62
67 67 67 67 66 66 66 66 66 66 65 65 66 65 65 64 64 63 63 63 63 62 62 61 60 60 60 60 59 60 61 61
66 67 67 66 65 66 66 66 66 66 66 66 66 65 64 64 64 64 63 63 62 62 61 60 59 59 58 59 60 61 61 61
65 66 66 66 65 66 66 66 66 66 66 66 65 65 64 63 63 63 63 63 62 61 61 60 59 59 59 59 60 60 61 61
63 65 66 65 65 65 65 65 65 65 65 65 65 65 65 64 63 62 63 62 62 61 61 60 59 59 59 59 60 60 61 61
61 63 64 65 65 65 65 64 64 64 63 64 64 65 64 63 63 62 63 63 61 61 61 60 60 59 59 59 59 60 61 61
58 62 63 65 64 64 63 63 63 63 63 63 62 63 64 63 63 62 62 62 62 62 61 60 59 60 59 59 58 59 60 60
56 61 63 64 64 64 63 63 63 63 63 63 63 62 63 63 62 62 62 61 61 61 61 60 60 60 57 56 53 55 58 59
57 61 64 64 64 64 63 62 62 62 62 62 62 62 62 63 62 62 61 61 60 60 60 59 58 59 58 55 52 51 55 57
51 57 63 64 64 63 62 61 60 61 61 61 62 62 62 63 62 61 61 61 60 60 60 59 57 56 58 58 55 54 51 51
48 50 53 63 63 63 62 61 61 60 60 60 61 61 62 62 61 61 60 59 58 59 59 58 58 56 56 56 56 54 54 52
45 46 48 51 57 63 62 61 61 60 60 59 60 60 60 61 61 60 59 58 57 57 57 58 57 57 57 56 54 53 52 52
42 44 46 48 50 56 62 62 61 60 60 59 59 59 59 61 60 59 58 57 57 56 56 57 57 57 56 56 56 55 54 53
40 42 44 48 49 52 61 61 61 60 60 60 59 59 59 60 60 59 58 57 57 56 55 56 58 57 56 56 55 55 54 53

GFSFLT2_sfc_30mbdewp_117.txt.gz
Dewpoint
68 68 69 70 70 70 69 69 70 70 70 70 70 70 70 69 69 68 68 69 69 68 68 67 67 67 66 65 64 65 64 64
67 68 69 69 70 69 68 68 69 69 70 69 69 69 69 69 69 68 68 68 68 68 67 67 67 66 65 64 63 64 64 64
66 67 68 68 69 69 69 69 69 69 69 69 69 68 68 68 68 68 67 68 68 67 67 67 66 65 65 64 62 62 63 64
65 66 66 67 68 68 69 69 68 68 68 69 68 68 67 67 68 67 67 67 67 67 66 66 65 64 64 64 63 62 63 63
65 65 66 66 67 67 67 67 67 67 66 67 68 67 67 66 66 67 66 66 66 66 66 65 64 63 62 61 61 61 62 63
64 65 65 65 66 66 66 66 66 67 67 67 67 66 66 65 65 65 65 65 65 64 64 63 62 61 61 61 60 61 62 63
64 65 64 65 65 65 65 65 65 66 66 66 67 66 65 65 64 64 63 63 64 63 63 62 61 60 60 60 60 60 61 62
65 64 64 64 65 64 64 65 65 65 65 66 66 66 65 65 64 63 63 62 63 63 62 61 60 60 60 60 59 60 60 61
66 65 65 64 64 64 64 64 65 64 64 65 66 65 65 64 64 63 63 62 62 61 61 60 60 59 59 60 59 59 60 60
67 66 66 65 64 65 65 65 64 64 65 65 65 65 64 64 64 63 63 62 62 61 61 60 59 59 58 58 59 60 60 60
65 66 66 66 65 65 65 65 65 65 65 65 65 65 64 63 63 63 63 62 62 61 61 60 59 59 59 58 59 59 60 61
63 66 66 66 66 65 65 65 65 65 65 65 65 65 64 63 63 62 62 62 62 61 61 60 60 59 58 59 59 60 60 61
61 64 65 66 65 64 64 64 64 64 65 65 65 65 64 63 63 62 62 62 62 61 61 60 59 60 58 58 58 59 60 60
48 61 63 65 65 64 64 64 63 64 63 63 64 64 64 63 63 62 62 62 62 61 61 60 60 59 57 56 54 56 58 60
53 59 61 64 64 64 63 62 62 62 62 62 63 63 63 63 63 62 62 62 61 61 61 60 58 59 59 55 52 51 54 57
47 51 60 63 64 63 62 62 61 62 62 62 62 62 62 62 62 62 61 61 61 61 61 60 59 57 59 58 55 54 53 51
44 47 49 53 59 63 63 62 61 61 62 62 61 62 62 62 62 61 61 61 61 60 59 59 59 58 57 57 57 55 55 52
43 45 46 48 51 54 63 62 61 60 60 60 61 61 61 62 62 61 61 61 60 59 59 59 58 57 57 56 55 54 54 53
41 42 44 46 49 51 53 62 62 60 60 60 60 60 60 60 61 61 60 59 58 58 58 58 58 57 57 56 56 55 55 54
39 40 42 43 45 48 51 54 62 61 59 60 60 60 60 60 60 60 60 58 58 58 57 57 57 57 57 56 56 56 55 54